Temperature
29 31 31 31 31 31 31 31 31 31 31 32 32 31 31 29 29 28 26 26 25 24 23 22 22 21 21 20 20 19 19 18 18 18 18 18 17 17 17 17 17 17 17 16
28 30 31 31 31 31 31 32 32 32 31 32 31 31 30 29 28 27 26 25 24 23 22 22 21 21 20 20 19 19 19 18 18 18 17 17 17 17 17 17 16 16 16 16
27 29 29 29 30 31 31 32 32 31 31 31 30 30 29 29 28 27 26 25 23 22 22 21 21 20 20 19 19 19 18 18 18 17 17 17 17 17 16 16 16 16 16 16
27 27 26 29 32 32 31 31 32 32 31 31 30 30 29 28 27 27 25 24 23 22 21 20 20 20 19 19 19 18 18 18 17 17 17 17 17 16 16 16 16 16 15 15
26 26 27 29 31 31 30 30 32 31 31 31 30 29 28 27 26 26 25 23 22 22 21 20 20 19 19 19 18 18 18 17 17 17 17 16 16 16 16 16 15 15 15 15
25 25 26 28 30 31 30 28 30 30 30 29 29 28 27 26 25 24 24 23 22 21 20 20 19 19 19 18 18 18 18 17 17 17 16 16 16 16 15 15 15 14 14 14
25 25 27 29 30 30 28 28 29 29 29 28 28 27 25 24 23 22 22 21 21 21 20 19 19 19 18 18 18 18 17 17 17 16 16 16 15 15 15 14 14 14 14 14
25 25 26 28 29 28 27 27 28 28 27 26 25 24 23 22 21 21 21 20 20 20 19 19 18 18 18 18 17 17 17 17 16 16 16 15 15 15 14 14 14 14 13 13
25 25 26 26 25 25 26 26 26 26 25 25 24 23 21 21 20 20 20 19 19 19 18 18 18 18 18 17 17 17 16 16 16 16 15 15 15 15 14 14 13 13 13 13
25 25 25 25 24 25 25 24 25 25 24 24 23 22 20 19 19 19 18 18 18 18 17 17 17 17 17 17 17 16 16 16 15 15 15 15 15 14 14 14 13 13 13 12
24 24 24 24 23 24 23 23 24 24 24 23 22 21 20 19 18 18 18 18 17 17 17 17 17 17 17 17 16 16 16 15 15 15 15 14 14 14 14 14 13 13 13 12
22 22 23 22 22 23 23 23 23 23 23 22 21 20 19 18 18 17 17 17 17 17 16 16 16 16 16 16 15 15 15 15 14 14 14 14 14 13 13 13 13 13 13 12
21 21 21 21 22 22 22 22 22 22 22 21 20 19 18 18 17 17 17 17 16 16 16 16 15 15 15 15 15 15 14 14 14 14 14 13 13 13 13 13 12 12 12 12
20 20 21 21 21 21 21 21 21 21 20 19 19 18 18 17 17 17 16 16 16 16 15 15 15 15 15 15 14 14 14 14 14 14 13 13 13 13 13 12 12 12 11 11
19 20 20 20 20 20 20 20 20 19 19 18 18 17 17 17 16 16 16 15 15 15 15 15 15 14 14 14 14 14 14 14 13 13 13 13 12 12 12 12 11 11 11 11
19 20 20 20 20 20 20 20 19 18 18 18 17 17 17 16 16 16 15 15 15 15 14 14 14 14 14 14 14 14 13 13 13 13 13 12 12 12 12 12 11 11 11 11
19 19 19 19 19 19 19 18 18 17 17 17 17 16 16 16 15 15 15 15 14 14 14 14 14 14 14 14 14 13 13 13 13 12 12 12 12 12 12 12 11 11 11 11
18 19 19 19 19 18 18 18 17 17 16 16 16 16 15 15 15 14 14 14 14 14 14 13 14 14 13 13 13 13 13 13 12 12 12 12 12 12 12 12 11 11 11 10
18 18 18 18 18 18 17 17 17 16 16 16 16 15 15 15 14 14 14 14 13 13 13 13 13 13 13 13 13 12 12 12 12 12 12 12 12 12 11 11 11 11 10 10
17 17 17 17 17 17 17 16 16 16 15 15 15 15 14 14 14 14 13 13 13 13 13 13 13 13 12 12 12 12 12 12 12 12 12 11 11 11 11 11 11 11 10 10
16 16 16 16 16 16 16 15 15 15 15 15 14 14 14 14 13 13 13 13 13 13 13 13 12 12 12 12 12 12 12 12 12 12 11 11 11 11 11 11 10 10 10 10
15 15 15 15 15 15 15 15 15 14 14 14 14 14 13 13 13 13 13 13 13 13 12 12 12 12 12 12 12 12 12 12 11 11 11 11 11 11 10 10 10 10 10 9
14 14 14 14 14 14 14 14 14 14 14 13 13 13 13 13 13 13 12 12 12 12 12 12 12 12 12 11 11 12 11 11 11 11 11 11 11 10 10 10 10 10 9 9
13 13 13 13 14 14 13 13 13 13 13 13 13 13 12 12 12 12 12 12 12 12 12 12 11 11 11 11 11 11 11 11 11 11 11 11 10 10 10 10 10 9 9 9
13 13 13 13 13 13 13 13 13 13 13 12 12 12 12 12 12 12 12 12 12 11 11 11 11 11 11 11 11 11 11 11 11 11 10 10 10 10 10 9 9 9 9 9
12 12 12 12 12 13 13 13 12 12 12 12 12 12 12 12 12 12 12 11 11 11 11 11 11 11 10 11 10 10 11 10 10 10 10 10 10 10 9 9 9 9 9 8
12 12 12 12 12 12 12 12 12 12 12 12 12 12 12 12 11 11 11 11 11 10 10 10 10 10 10 10 10 10 10 10 10 10 10 10 9 9 9 9 9 8 8 8
Wind_Speed
18 15 14 17 19 19 18 18 16 12 12 10 8 9 10 11 10 10 10 9 10 10 9 9 9 9 8 8 8 8 8 7 7 6 6 6 5 5 5 5 5 5 6 6
18 19 16 15 18 20 19 18 18 14 10 8 8 8 10 10 10 9 10 10 10 11 10 10 10 9 9 9 9 9 8 8 7 7 7 6 6 6 6 6 6 6 7 8
15 17 16 17 16 18 17 17 16 14 10 6 7 8 9 10 9 9 10 10 10 11 10 9 10 10 10 10 9 9 8 8 8 7 7 7 7 7 7 7 7 8 8 8
13 14 18 14 14 14 15 15 14 11 9 8 7 7 7 9 9 9 9 10 10 11 11 11 10 10 10 10 10 9 9 8 8 8 8 7 8 7 7 7 7 7 7 8
12 14 15 13 12 11 11 10 11 11 9 8 7 7 5 5 7 9 9 9 9 10 12 11 11 11 11 11 10 10 9 8 9 8 8 8 7 7 6 7 7 7 7 7
11 12 13 12 11 8 7 8 7 7 7 6 8 7 6 7 8 10 10 9 9 11 12 11 11 11 11 11 10 9 9 9 9 8 8 8 7 7 7 6 7 7 7 7
15 13 9 6 8 10 11 6 4 5 6 5 4 2 6 9 10 11 10 10 11 11 11 10 10 10 10 10 9 9 9 9 9 8 8 8 7 6 6 6 7 7 7 7
14 13 9 4 7 6 3 4 3 4 5 5 6 10 11 12 11 11 10 10 11 11 11 10 10 10 10 10 9 9 9 9 9 7 7 7 7 6 5 6 6 6 6 7
7 5 1 4 5 5 5 4 4 5 5 7 9 12 13 12 11 10 10 10 11 12 12 10 9 9 11 10 10 10 9 9 8 7 6 5 5 6 5 4 5 5 5 6
4 4 3 5 5 5 5 4 3 6 7 9 10 13 14 12 11 9 10 10 11 12 12 11 9 9 10 10 10 10 9 8 7 7 7 6 4 4 4 3 3 4 5 5
4 4 5 5 3 4 5 4 3 6 7 9 11 14 14 12 11 9 9 8 9 10 10 11 11 10 10 10 10 10 9 8 7 8 9 8 8 7 6 6 4 4 4 4
2 2 3 4 3 5 6 4 4 6 9 9 11 13 14 13 11 10 9 9 9 10 10 10 11 10 9 9 9 9 8 7 7 7 7 8 8 8 13 11 13 14 11 8
2 1 2 3 3 4 5 5 4 6 10 11 12 13 13 12 10 10 9 9 10 10 10 10 10 10 9 9 8 7 7 6 6 6 7 7 7 7 7 8 12 13 12 11
2 1 2 4 5 4 6 7 8 10 11 11 12 13 12 11 10 10 9 9 9 9 9 9 9 9 9 9 8 7 7 6 5 5 6 6 6 6 6 6 6 5 5 6
1 1 3 4 5 5 6 8 8 9 11 11 11 11 11 11 10 9 9 9 9 9 8 8 8 9 8 9 8 7 6 6 5 5 5 5 6 6 6 6 6 6 5 3
1 2 4 4 5 5 5 6 7 7 9 9 10 10 10 10 10 10 9 9 9 9 8 8 8 8 8 8 8 6 5 6 5 5 5 5 5 5 6 6 6 6 5 5
0 2 3 3 4 4 5 6 7 7 7 8 9 10 10 10 10 9 9 8 8 8 7 7 7 7 8 7 7 6 6 6 6 4 4 5 5 5 5 5 5 5 5 4
0 1 2 2 2 3 5 6 7 8 7 8 9 10 10 10 9 8 8 8 8 7 6 6 7 7 7 6 5 5 6 6 5 5 5 4 4 4 5 5 6 6 5 4
1 1 2 2 2 4 4 6 7 7 8 8 8 8 8 8 9 9 8 7 7 7 6 6 7 7 7 6 5 4 5 6 6 5 5 5 5 5 5 5 5 5 5 5
2 2 2 2 3 4 4 5 7 7 7 7 7 7 7 8 8 8 8 6 5 5 7 7 7 6 6 6 5 5 6 6 6 6 5 5 5 5 5 5 5 5 4 4
1 2 2 3 4 4 5 5 5 6 6 7 7 7 7 7 7 7 6 5 6 7 8 7 5 5 5 5 4 5 6 6 7 6 6 5 5 5 4 4 4 4 4 3
1 1 2 3 4 4 5 5 5 5 6 6 6 7 8 8 7 5 4 4 7 8 7 6 5 6 6 5 5 5 6 7 7 6 5 5 5 5 4 4 4 4 4 3
1 1 2 2 3 4 5 5 5 5 6 6 7 7 7 6 6 5 5 5 7 7 6 6 7 10 8 5 5 5 6 6 6 6 5 5 5 4 4 4 4 4 3 3
1 2 2 2 3 4 5 4 4 4 5 5 6 6 6 6 5 4 5 9 9 9 6 8 11 10 7 5 5 6 6 6 6 6 6 5 5 5 4 4 4 4 4 3
2 2 3 4 4 4 5 5 5 5 6 5 6 6 5 5 5 5 6 9 10 10 8 9 10 9 6 5 5 6 6 6 6 5 5 4 4 4 5 4 4 3 3 2
3 2 1 2 3 3 4 5 5 5 6 6 6 5 5 5 7 7 7 9 10 9 9 8 8 7 5 5 6 6 6 7 6 5 5 5 5 5 5 5 5 3 2 2
3 3 2 2 3 3 3 4 5 5 6 6 6 6 6 6 7 8 9 9 9 8 8 7 7 6 6 5 5 6 6 6 5 5 4 5 4 4 5 5 4 3 3 3
Wind_Direction
257 256 226 215 225 230 231 235 238 232 214 198 174 162 146 139 144 145 139 138 133 131 128 127 125 125 128 129 126 127 126 122 116 111 103 99 93 87 80 76 77 74 72 68
248 256 256 232 221 227 230 233 236 241 235 201 168 157 145 148 157 156 152 149 142 137 135 135 134 134 131 127 125 123 123 120 115 112 105 100 95 88 85 80 78 75 71 67
239 242 250 242 232 226 227 232 235 233 228 185 176 160 150 151 159 159 157 152 148 145 142 139 139 135 134 131 128 125 122 119 117 114 112 110 104 96 93 89 83 77 75 75
245 237 237 240 234 232 230 231 232 225 210 190 172 157 160 163 162 158 155 149 152 146 142 140 137 135 134 132 130 127 125 122 119 115 112 106 101 99 96 94 90 86 81 80
239 236 232 235 230 224 226 227 225 213 206 196 165 154 155 138 140 141 138 137 142 141 140 138 138 137 135 133 131 128 123 119 116 117 115 111 108 104 101 99 95 91 87 82
238 241 233 226 220 218 225 224 220 208 188 183 187 196 167 137 133 127 124 128 136 139 137 135 135 134 133 130 128 125 122 118 116 115 113 110 108 105 102 102 102 98 89 81
237 240 245 232 201 210 220 204 182 190 173 180 212 158 120 123 121 116 116 120 127 127 127 128 129 130 128 123 120 118 116 113 112 113 112 111 108 106 108 104 101 99 96 87
232 237 231 238 211 201 132 92 118 151 151 134 115 117 114 112 112 118 123 128 128 122 120 121 124 123 120 115 113 112 113 111 109 109 114 114 112 109 110 114 113 109 107 98
219 222 50 61 79 90 99 100 112 128 133 130 128 125 121 119 118 123 127 130 128 125 123 122 123 124 121 117 115 113 112 112 112 109 103 108 117 123 130 135 126 120 115 107
189 173 145 103 105 102 94 102 111 133 142 139 139 132 127 126 125 126 126 125 128 129 129 126 124 120 119 122 123 123 122 120 118 115 106 90 84 89 98 98 106 104 98 99
192 160 137 116 122 120 114 117 126 132 131 137 135 132 130 128 130 127 122 124 127 129 131 130 127 125 127 129 130 130 129 126 122 114 106 89 74 55 67 52 57 90 91 90
173 139 155 144 152 120 121 129 126 123 119 124 125 127 127 128 129 127 130 130 128 128 129 128 128 128 130 133 136 136 138 139 135 129 124 120 108 86 57 65 67 69 72 89
82 334 135 136 141 131 127 123 128 125 121 122 122 124 124 126 127 127 129 130 128 127 128 128 130 130 132 135 137 138 136 135 135 134 136 135 132 125 112 81 67 66 70 82
40 33 134 124 122 131 127 120 120 117 112 116 120 121 123 124 125 126 126 122 122 125 126 130 132 134 136 136 135 135 136 131 133 135 138 140 141 139 135 132 120 98 78 87
40 92 106 101 106 103 101 110 113 117 114 116 121 123 126 127 127 125 121 121 123 127 130 133 135 137 140 140 139 140 141 141 139 140 146 144 141 139 132 127 127 127 128 127
345 109 117 119 116 112 115 115 113 117 121 122 124 128 130 128 125 121 121 128 132 133 133 134 135 137 140 140 139 139 131 133 146 150 150 145 145 142 136 135 136 139 142 143
172 96 104 111 104 112 116 111 113 120 124 125 125 124 125 124 123 123 125 129 125 124 129 133 136 140 144 147 148 147 143 145 150 159 156 147 144 143 141 143 139 130 125 137
310 42 77 98 122 110 112 120 121 121 125 127 125 125 128 129 130 128 127 127 125 124 128 134 134 137 139 144 145 143 147 152 159 154 144 141 138 137 138 133 126 123 127 133
168 141 116 105 100 113 125 124 118 118 121 121 123 126 128 133 133 132 132 135 137 137 135 129 131 142 142 136 136 139 147 153 155 148 140 131 142 141 135 133 132 132 136 141
164 133 119 120 114 117 116 113 118 118 122 126 126 125 126 126 130 133 135 136 139 135 133 134 141 141 142 141 146 151 150 147 145 140 138 141 140 134 135 134 132 133 131 128
123 127 131 127 118 114 120 120 124 126 129 137 138 138 136 133 135 135 140 141 127 126 138 139 143 138 139 141 162 151 145 142 139 139 142 143 139 133 135 134 131 130 133 137
86 99 112 121 127 122 121 124 134 138 139 144 144 142 140 141 141 139 141 132 133 135 145 147 144 130 129 141 156 147 141 140 138 140 141 142 140 139 143 142 142 142 139 138
94 89 115 122 127 130 126 130 141 148 151 150 148 149 150 152 155 152 146 135 138 145 150 143 130 124 127 149 148 142 137 139 142 142 143 146 148 149 150 147 139 134 132 132
128 129 144 141 135 140 141 144 140 139 142 145 148 150 150 149 146 145 136 135 138 147 146 130 133 138 151 157 149 140 140 145 146 145 148 151 150 144 135 131 128 124 125 129
165 167 162 159 163 164 156 157 151 148 149 145 146 142 145 149 147 138 132 136 140 141 137 139 146 154 160 155 145 144 148 147 144 141 140 143 141 133 125 122 119 114 123 141
178 181 158 172 169 171 170 167 161 155 155 152 149 149 149 143 136 132 129 139 143 142 140 142 149 155 157 147 145 148 142 137 138 144 142 137 134 129 124 124 124 131 137 128
176 171 170 172 166 168 161 155 152 153 154 151 146 147 147 141 138 140 140 143 145 144 140 142 147 152 156 158 154 145 143 145 146 144 143 141 135 130 128 131 140 142 130 120
Height
1464 1456 1456 1463 1466 1465 1468 1470 1476 1473 1472 1471 1471 1475 1479 1484 1489 1494 1498 1502 1505 1508 1512 1515 1518 1521 1523 1526 1527 1529 1530 1532 1533 1534 1535 1536 1537 1537 1538 1538 1538 1539 1539 1539
1470 1460 1457 1459 1460 1462 1463 1464 1466 1467 1468 1464 1469 1474 1479 1485 1489 1493 1498 1502 1505 1508 1512 1515 1517 1520 1523 1525 1527 1529 1530 1532 1533 1535 1536 1537 1537 1538 1538 1539 1539 1539 1539 1539
1475 1465 1463 1469 1459 1459 1460 1459 1461 1468 1468 1466 1471 1474 1480 1485 1489 1493 1497 1501 1505 1508 1511 1514 1517 1520 1522 1525 1527 1529 1531 1532 1534 1535 1536 1537 1538 1539 1539 1540 1540 1540 1540 1540
1475 1473 1486 1464 1449 1451 1455 1456 1456 1459 1462 1465 1471 1476 1481 1485 1488 1492 1496 1500 1505 1508 1511 1514 1517 1520 1523 1525 1527 1529 1531 1533 1535 1536 1537 1538 1539 1540 1540 1541 1541 1541 1541 1542
1476 1477 1472 1458 1449 1451 1457 1459 1455 1458 1462 1466 1470 1476 1481 1485 1487 1491 1496 1500 1503 1507 1510 1514 1517 1520 1522 1525 1527 1530 1532 1534 1535 1537 1538 1539 1539 1540 1541 1541 1542 1542 1543 1543
1476 1480 1479 1460 1449 1450 1455 1464 1457 1459 1463 1467 1471 1476 1482 1485 1488 1492 1496 1500 1503 1507 1511 1514 1517 1520 1522 1525 1527 1530 1532 1534 1536 1537 1538 1539 1540 1541 1542 1543 1543 1544 1544 1544
1475 1475 1465 1449 1448 1452 1469 1467 1459 1461 1464 1469 1472 1475 1481 1484 1487 1492 1496 1500 1504 1507 1511 1514 1517 1520 1522 1525 1528 1530 1532 1534 1536 1538 1539 1540 1541 1542 1543 1544 1544 1545 1545 1545
1471 1474 1469 1450 1449 1455 1460 1460 1461 1463 1466 1471 1474 1478 1481 1484 1487 1492 1496 1501 1505 1508 1511 1514 1517 1520 1522 1525 1528 1530 1532 1534 1536 1537 1539 1540 1541 1542 1544 1545 1545 1546 1546 1546
1461 1463 1457 1454 1456 1459 1460 1462 1463 1466 1469 1472 1476 1480 1483 1487 1491 1495 1499 1502 1505 1508 1511 1515 1518 1521 1523 1525 1527 1530 1532 1534 1536 1538 1539 1540 1542 1542 1544 1545 1546 1546 1547 1547
1456 1457 1457 1458 1459 1461 1463 1464 1466 1468 1470 1473 1477 1481 1484 1489 1493 1496 1499 1502 1505 1508 1511 1515 1518 1521 1523 1525 1528 1531 1533 1535 1536 1538 1539 1541 1542 1543 1544 1545 1546 1547 1547 1547
1456 1456 1458 1460 1463 1464 1465 1466 1467 1468 1471 1474 1477 1480 1484 1489 1494 1497 1500 1503 1506 1509 1512 1515 1518 1521 1523 1526 1528 1530 1533 1535 1536 1538 1539 1540 1542 1543 1544 1545 1546 1546 1547 1547
1459 1459 1460 1462 1463 1464 1466 1467 1468 1470 1473 1476 1478 1482 1485 1490 1495 1498 1501 1504 1507 1510 1513 1515 1518 1520 1523 1525 1528 1530 1532 1534 1536 1538 1539 1540 1541 1543 1544 1545 1546 1546 1548 1548
1460 1461 1461 1461 1462 1464 1466 1468 1470 1472 1474 1477 1480 1483 1487 1491 1495 1499 1502 1504 1507 1510 1513 1515 1518 1521 1523 1525 1528 1530 1532 1534 1536 1538 1539 1540 1542 1543 1544 1546 1547 1548 1548 1549
1461 1461 1461 1461 1464 1466 1468 1469 1471 1473 1476 1478 1482 1485 1488 1492 1496 1500 1502 1505 1508 1511 1514 1516 1518 1521 1523 1525 1528 1530 1532 1534 1536 1538 1539 1541 1542 1544 1545 1546 1547 1548 1549 1550
1463 1463 1463 1463 1466 1467 1469 1470 1473 1474 1477 1480 1483 1486 1490 1494 1497 1500 1503 1506 1509 1511 1514 1517 1519 1521 1523 1525 1527 1530 1532 1534 1536 1538 1540 1541 1543 1544 1545 1546 1547 1548 1550 1551
1465 1465 1466 1467 1468 1471 1472 1473 1475 1478 1480 1483 1485 1488 1492 1495 1498 1501 1504 1507 1509 1512 1514 1517 1519 1521 1523 1525 1527 1530 1532 1534 1536 1538 1540 1541 1543 1545 1546 1547 1548 1549 1550 1551
1467 1468 1468 1469 1471 1473 1474 1475 1477 1480 1483 1485 1488 1490 1493 1496 1499 1502 1504 1508 1510 1512 1514 1516 1518 1520 1523 1525 1527 1529 1532 1534 1536 1538 1540 1541 1543 1545 1546 1547 1548 1549 1550 1551
1469 1470 1471 1471 1473 1474 1476 1478 1480 1481 1484 1486 1489 1492 1494 1497 1500 1502 1505 1508 1510 1512 1515 1517 1518 1520 1522 1525 1527 1528 1531 1533 1536 1538 1540 1541 1543 1544 1545 1547 1548 1549 1550 1551
1470 1471 1472 1473 1474 1476 1478 1479 1481 1482 1485 1488 1490 1493 1495 1498 1500 1503 1506 1508 1510 1512 1514 1516 1518 1520 1522 1524 1526 1529 1531 1533 1535 1537 1539 1540 1542 1544 1545 1546 1548 1549 1550 1551
1471 1472 1474 1475 1476 1477 1479 1480 1482 1484 1487 1489 1491 1494 1496 1498 1500 1503 1506 1508 1510 1512 1514 1516 1517 1520 1522 1524 1526 1529 1531 1533 1535 1537 1538 1540 1542 1543 1545 1547 1548 1549 1550 1551
1471 1473 1474 1475 1477 1478 1479 1481 1482 1485 1487 1490 1492 1494 1496 1498 1501 1503 1505 1508 1510 1512 1514 1515 1517 1519 1521 1524 1526 1528 1531 1533 1534 1536 1538 1540 1542 1543 1545 1546 1548 1549 1550 1551
1472 1473 1474 1475 1477 1478 1480 1481 1483 1485 1487 1489 1491 1493 1496 1498 1500 1503 1505 1507 1509 1511 1513 1515 1517 1519 1522 1524 1526 1529 1530 1532 1534 1536 1538 1540 1542 1543 1545 1547 1548 1549 1550 1550
1472 1473 1474 1475 1477 1478 1480 1481 1483 1485 1487 1489 1491 1493 1495 1498 1500 1502 1504 1507 1508 1511 1513 1515 1517 1519 1522 1525 1526 1528 1531 1533 1535 1537 1538 1540 1542 1544 1545 1547 1548 1548 1549 1550
1472 1473 1474 1475 1477 1478 1479 1481 1483 1485 1487 1489 1491 1493 1495 1497 1500 1502 1504 1506 1508 1510 1513 1515 1517 1520 1523 1525 1527 1529 1531 1533 1535 1537 1539 1541 1542 1544 1545 1546 1547 1548 1549 1550
1471 1472 1474 1475 1476 1478 1479 1481 1483 1485 1487 1489 1491 1493 1495 1497 1499 1501 1503 1505 1508 1510 1512 1515 1517 1520 1523 1525 1527 1529 1531 1533 1535 1537 1539 1541 1542 1544 1545 1546 1547 1548 1549 1549
1470 1471 1472 1474 1475 1477 1478 1480 1482 1484 1486 1488 1490 1493 1495 1497 1499 1501 1502 1505 1507 1510 1512 1514 1517 1520 1523 1525 1527 1529 1531 1533 1535 1537 1539 1540 1542 1543 1544 1546 1547 1548 1549 1549
1469 1470 1471 1473 1475 1476 1478 1479 1481 1483 1485 1487 1489 1492 1494 1496 1498 1500 1502 1504 1507 1510 1512 1515 1517 1520 1523 1525 1528 1530 1532 1533 1535 1537 1539 1540 1541 1543 1544 1545 1546 1547 1548 1549